Change the Weather History Date:

Wednesday, February 12, 2014

  Actual Average Record
Temperature  
Mean Temperature 35 °F 24 °F  
Max Temperature 42 °F 34 °F 54 °F (1977)
Min Temperature 27 °F 13 °F -14 °F (1895)
Degree Days  
Heating Degree Days 30 41  
Month to date heating degree days 579 514  
Since 1 July heating degree days 5248 5436  
Cooling Degree Days 0 0  
Month to date cooling degree days 0 0  
Year to date cooling degree days 0 0  
Moisture  
Dew Point 28 °F    
Average Humidity 81    
Maximum Humidity 92    
Minimum Humidity 69    
Precipitation  
Precipitation T in 0.02 in 0.21 in (1952)
Month to date precipitation 0.48 0.27  
Year to date precipitation 0.71 0.78  
Sea Level Pressure  
Sea Level Pressure 29.93 in    
Wind  
Wind Speed 3 mph (NNW)    
Max Wind Speed 12 mph    
Max Gust Speed 13 mph    
Visibility 10 miles    
Events Rain , Snow    
T = Trace of Precipitation, MM = Missing Value Source: NWS Daily Summary

Daily Weather History Graph

Daily Weather History Graph

Search for Another Location

Airport or City:

Trip Planner

Search our weather history database for the weather conditions in past years. The results will help you decide how hot, cold, wet, or windy it might be!

Date:

Astronomy

Feb. 12, 2014 Rise Set
Actual Time 7:41 AM MST 6:01 PM MST
Civil Twilight 7:11 AM MST 6:31 PM MST
Nautical Twilight 6:36 AM MST 7:06 PM MST
Astronomical Twilight 6:03 AM MST 7:39 PM MST
Moon 4:17 PM MST (2/12) 6:02 AM MST (2/12)
Length of Visible Light 11h 20m
Length of Day
10h 20m
Waxing Gibbous, 96% of the Moon is Illuminated
Feb 12
Waxing Gibbous
Feb 14
Full
Feb 22
Last Quarter
Mar 1
New
Mar 8
First Quarter

Hourly Weather History & Observations

Time (MST) Temp. Windchill Dew Point Humidity Pressure Visibility Wind Dir Wind Speed Gust Speed Precip Events Conditions
12:55 AM 28.9 °F - 21.9 °F 75% 30.07 in 10.0 mi Calm Calm - N/A   Overcast
1:55 AM 28.0 °F 24.2 °F 21.0 °F 75% 30.04 in 10.0 mi North 3.5 mph - N/A   Overcast
2:55 AM 28.9 °F 25.2 °F 21.0 °F 72% 30.01 in 10.0 mi NNW 3.5 mph - N/A   Overcast
3:55 AM 30.0 °F 24.1 °F 21.9 °F 72% 29.99 in 10.0 mi North 5.8 mph - N/A   Overcast
4:55 AM 28.9 °F - 21.9 °F 75% 29.95 in 10.0 mi Calm Calm - N/A   Overcast
5:55 AM 28.9 °F 22.8 °F 25.0 °F 85% 29.94 in 10.0 mi North 5.8 mph - N/A   Overcast
6:55 AM 28.9 °F 23.9 °F 26.1 °F 89% 29.94 in 10.0 mi NNW 4.6 mph - N/A   Overcast
7:55 AM 28.9 °F - 26.1 °F 89% 29.94 in 10.0 mi Calm Calm - N/A   Overcast
8:55 AM 30.0 °F - 27.0 °F 88% 29.92 in 9.0 mi Calm Calm - 0.00 in   Overcast
9:55 AM 30.9 °F 27.5 °F 28.0 °F 89% 29.91 in 6.0 mi NNW 3.5 mph - 0.00 in Snow Light Snow
10:55 AM 34.0 °F - 28.9 °F 82% 29.90 in 10.0 mi Calm Calm - 0.00 in   Overcast
11:55 AM 34.0 °F 29.8 °F 30.0 °F 85% 29.90 in 10.0 mi NNE 4.6 mph - N/A   Overcast
12:55 PM 35.1 °F 30.1 °F 30.9 °F 85% 29.88 in 10.0 mi North 5.8 mph - 0.00 in Rain Light Rain
1:55 PM 35.1 °F 32.2 °F 33.1 °F 92% 29.87 in 10.0 mi NNW 3.5 mph - 0.00 in Rain Light Rain
2:55 PM 36.0 °F - 33.1 °F 89% 29.86 in 10.0 mi Calm Calm - 0.00 in   Overcast
3:55 PM 39.0 °F 34.0 °F 33.1 °F 79% 29.85 in 10.0 mi North 6.9 mph - N/A   Overcast
4:55 PM 39.0 °F - 33.1 °F 79% 29.88 in 10.0 mi Calm Calm - N/A   Overcast
5:55 PM 37.0 °F 31.6 °F 32.0 °F 82% 29.91 in 10.0 mi NNW 6.9 mph - N/A   Overcast
6:55 PM 36.0 °F - 32.0 °F 86% 29.93 in 10.0 mi Calm Calm - N/A   Overcast
7:55 PM 35.1 °F 32.2 °F 32.0 °F 89% 29.95 in 10.0 mi NW 3.5 mph - N/A   Overcast
8:55 PM 36.0 °F - 30.9 °F 82% 29.95 in 10.0 mi Calm Calm - N/A   Overcast
9:55 PM 36.0 °F - 30.9 °F 82% 29.95 in 10.0 mi Calm Calm - 0.00 in   Overcast
10:55 PM 37.9 °F 33.5 °F 30.9 °F 76% 29.92 in 10.0 mi WSW 5.8 mph - N/A   Overcast
11:55 PM 34.0 °F - 30.0 °F 85% 29.92 in 10.0 mi Calm Calm - N/A   Mostly Cloudy